15 daagse weersverwachting Harstad (NO)

  • Overzicht
  • Per uur
  • 15 dagen
  • Extra
  • Vergelijk
  • Kaarten
  • Dagkaart
  • Meer »
  • Info
  • Statistieken
  • Directe link
    Temp 6h Neerslag Wind  
Midzomernacht Vandaag
14:00
10°
 
8
20:00
1.1 mm
5
Midzomernacht Morgen
02:00
0.5 mm
4
08:00
 
6
14:00
10°
 
6
20:00
 
5
Midzomernacht Zaterdag 29 Jun
02:00
 
4
08:00
1.6 mm
6
14:00
8.3 mm
6
20:00
2.1 mm
7
Midzomernacht Zondag 30 Jun
02:00
15.7 mm
3
Locatie info
Region: Troms
Latitude: 68.7973°N
Longitude: 16.5393°E
1 masl
Postcode: 9406
Temp/Neerslag /Baro Onweer/Dauwpunt
    Temp Baro 1h Neerslag Dauwpunt Wind UV Bewolking  
Midzomernacht Vandaag
10:00
10°
Voelt als: 7.4°
1014.7 hPa
48%
2.5°
5
Windvlaag: 6.9 km/h
3%
11:00
11°
1014.6 hPa
18%
2.7°
6
Windvlaag: 8.8 km/h
16%
12:00
11°
1014.6 hPa
19%
3.1°
7
Windvlaag: 10.2 km/h
54%
13:00
10°
1014.3 hPa
61%
3.5°
7
Windvlaag: 10.4 km/h
67%
14:00
10°
Voelt als: 6.5°
1013.7 hPa
79%
4.2°
8
Windvlaag: 11.7 km/h
82%
15:00
Voelt als: 5.6°
1013.8 hPa 0.6 mm
81%
5.3°
7
Windvlaag: 11.5 km/h
75%
16:00
Voelt als: 5.7°
1013.7 hPa
82%
4.1°
7
Windvlaag: 10.3 km/h
55%
17:00
Voelt als: 5.7°
1013.8 hPa
82%
4.3°
6
Windvlaag: 10 km/h
52%
18:00
Voelt als: 5.6°
1013.9 hPa
82%
3.1°
6
Windvlaag: 8.2 km/h
52%
19:00
Voelt als: 5.1°
1013.8 hPa 0.5 mm
82%
3.8°
6
Windvlaag: 7.6 km/h
62%
20:00
Voelt als: 4.8°
1014.0 hPa
82%
4.5°
5
Windvlaag: 7.1 km/h
68%
21:00
Voelt als: 4.5°
1014.2 hPa 0.5 mm
81%
4.6°
4
Windvlaag: 5.5 km/h
78%
22:00
Voelt als: 4.8°
1014.1 hPa
81%
4.3°
4
Windvlaag: 4.8 km/h
80%
23:00
Voelt als: 4.5°
1013.9 hPa
80%
4.1°
4
Windvlaag: 4.4 km/h
68%
Midzomernacht Morgen
00:00
Voelt als: 4.0°
1013.6 hPa
79%
4.2°
4
Windvlaag: 5.2 km/h
56%
01:00
Voelt als: 3.7°
1013.4 hPa
77%
4.3°
4
Windvlaag: 5.7 km/h
51%
02:00
Voelt als: 3.6°
1013.0 hPa
72%
4.2°
4
Windvlaag: 5.1 km/h
46%
03:00
Voelt als: 3.3°
1012.7 hPa
46%
4.1°
4
Windvlaag: 3.4 km/h
48%
04:00
Voelt als: 3.4°
1012.3 hPa
76%
3.9°
4
Windvlaag: 3.2 km/h
59%
05:00
Voelt als: 3.7°
1012.0 hPa
45%
3.7°
5
Windvlaag: 4.1 km/h
64%
06:00
Voelt als: 3.8°
1011.6 hPa
78%
3.4°
5
Windvlaag: 6.3 km/h
66%
07:00
Voelt als: 4.0°
1011.3 hPa
82%
3.3°
5
Windvlaag: 7.1 km/h
73%
08:00
Voelt als: 4.6°
1011.0 hPa
82%
3.1°
6
Windvlaag: 7.8 km/h
75%
09:00
Voelt als: 5.1°
1010.6 hPa
82%
3.2°
6
Windvlaag: 8.2 km/h
60%
10:00
Voelt als: 5.6°
1010.5 hPa
82%
2.8°
6
Windvlaag: 9 km/h
52%
11:00
Voelt als: 6.1°
1010.2 hPa
82%
2.6°
6
Windvlaag: 9.1 km/h
59%
12:00
Voelt als: 6.4°
1009.9 hPa
75%
2.3°
6
Windvlaag: 9.5 km/h
59%
13:00
10°
Voelt als: 6.8°
1009.5 hPa
80%
2.7°
6
Windvlaag: 9.6 km/h
65%
14:00
10°
1009.2 hPa
80%
2.3°
6
Windvlaag: 9.4 km/h
49%
15:00
10°
Voelt als: 6.8°
1008.8 hPa
80%
2.7°
6
Windvlaag: 9.4 km/h
49%
16:00
Voelt als: 6.5°
1008.4 hPa
81%
3.3°
6
Windvlaag: 9.4 km/h
56%
17:00
Voelt als: 6.5°
1007.9 hPa
77%
3.3°
6
Windvlaag: 9.2 km/h
57%
18:00
Voelt als: 6.2°
1007.4 hPa
71%
3.3°
6
Windvlaag: 9.6 km/h
60%
19:00
Voelt als: 5.8°
1006.8 hPa
69%
3.6°
6
Windvlaag: 9.5 km/h
64%
20:00
Voelt als: 6.0°
1006.2 hPa
25%
4.3°
5
Windvlaag: 9 km/h
65%
21:00
Voelt als: 5.9°
1005.4 hPa
24%
4.6°
4
Windvlaag: 7.5 km/h
66%
22:00
Voelt als: 5.8°
1004.6 hPa
21%
4.4°
4
Windvlaag: 6.9 km/h
52%
23:00
Voelt als: 5.8°
1003.8 hPa
14%
4.8°
3
Windvlaag: 6.1 km/h
77%
Midzomernacht Zaterdag 29 Jun
00:00
Voelt als: 5.9°
1003.0 hPa
15%
5.2°
3
Windvlaag: 4.3 km/h
85%
01:00
Voelt als: 5.3°
1002.2 hPa
15%
5.2°
3
Windvlaag: 5.5 km/h
84%
02:00
Voelt als: 4.9°
1001.6 hPa
14%
5.6°
4
Windvlaag: 5.9 km/h
74%
03:00
Voelt als: 4.1°
1001.2 hPa
16%
4.5°
4
Windvlaag: 5.2 km/h
83%
04:00
Voelt als: 3.5°
1001.0 hPa
23%
4.0°
4
Windvlaag: 3.8 km/h
85%
05:00
Voelt als: 3.5°
1000.9 hPa
79%
3.1°
4
Windvlaag: 5.7 km/h
65%
06:00
Voelt als: 3.0°
1001.1 hPa 1.6 mm
96%
3.4°
5
Windvlaag: 7.4 km/h
78%
07:00
Voelt als: 3.4°
1001.3 hPa
100%
1.3°
5
Windvlaag: 8.1 km/h
53%
08:00
Voelt als: 3.9°
1001.3 hPa
100%
1.0°
6
Windvlaag: 9.2 km/h
57%
09:00
Voelt als: 3.6°
1001.8 hPa 2.2 mm
100%
2.1°
6
Windvlaag: 9.8 km/h
82%
10:00
Voelt als: 4.1°
1002.3 hPa 2.1 mm
100%
0.4°
6
Windvlaag: 8.3 km/h
62%
11:00
Voelt als: 4.6°
1002.6 hPa
100%
0.1°
6
Windvlaag: 7.9 km/h
61%
12:00
Voelt als: 3.7°
1003.2 hPa 2.0 mm
100%
2.8°
7
Windvlaag: 9.4 km/h
63%
13:00
Voelt als: 5.2°
1003.5 hPa 2.0 mm
99%
1.3°
6
Windvlaag: 8.3 km/h
61%
14:00
Voelt als: 5.3°
1003.9 hPa
100%
1.1°
6
Windvlaag: 7.6 km/h
75%
15:00
Voelt als: 5.3°
1004.4 hPa 2.1 mm
100%
1.7°
6
Windvlaag: 7.5 km/h
57%
16:00
Voelt als: 5.2°
1004.6 hPa
100%
1.0°
6
Windvlaag: 7.7 km/h
55%
17:00
Voelt als: 4.9°
1005.0 hPa
100%
1.2°
7
Windvlaag: 7.6 km/h
70%
18:00
Voelt als: 4.6°
1005.3 hPa
100%
1.0°
6
Windvlaag: 7.9 km/h
53%
19:00
Voelt als: 4.3°
1005.5 hPa
55%
2.8°
6
Windvlaag: 7.7 km/h
53%
20:00
Voelt als: 3.6°
1005.6 hPa
42%
3.3°
7
Windvlaag: 7.8 km/h
69%
21:00
Voelt als: 3.4°
1005.7 hPa 3.2 mm
39%
3.3°
6
Windvlaag: 1.1 km/h
64%
22:00
Voelt als: 3.2°
1005.9 hPa 3.2 mm
36%
3.2°
6
Windvlaag: 1.3 km/h
61%
23:00
Voelt als: 3.1°
1006.0 hPa 3.2 mm
34%
3.2°
5
Windvlaag: 2 km/h
73%
Midzomernacht Zondag 30 Jun
00:00
Voelt als: 3.3°
1006.1 hPa
81%
3.1°
4
Windvlaag: 2.6 km/h
71%
01:00
Voelt als: 3.1°
1006.3 hPa 3.0 mm
84%
3.1°
4
Windvlaag: 2.6 km/h
72%
02:00
Voelt als: 3.1°
1006.2 hPa 3.1 mm
32%
3.1°
3
Windvlaag: 1 km/h
80%
03:00
Voelt als: 3.5°
1006.5 hPa
70%
3.1°
3
Windvlaag: 3.6 km/h
72%
04:00
Voelt als: 3.8°
1006.3 hPa
34%
3.0°
3
Windvlaag: 2.3 km/h
68%
05:00
Voelt als: 4.1°
1006.0 hPa
31%
2.9°
3
Windvlaag: 2 km/h
45%
06:00
Voelt als: 4.2°
1005.9 hPa
32%
2.8°
3
Windvlaag: 3.4 km/h
46%
07:00
Voelt als: 4.4°
1005.6 hPa
75%
2.7°
4
Windvlaag: 4.2 km/h
70%
08:00
Voelt als: 4.8°
1005.2 hPa
80%
2.7°
4
Windvlaag: 0.6 km/h
81%
09:00
Voelt als: 5.0°
1005.3 hPa   2.6°
4
Windvlaag: 0 km/h
95%
Temp/Neerslag /Baro Onweer/Dauwpunt
    Temp Baro Neerslag Dauwpunt Wind Bewolking  
Midzomernacht Vandaag
11:00
11°
1014.6 hPa   2.7°
6
16%
14:00
10°
Voelt als: 6.5°
1013.7 hPa   4.2°
8
82%
17:00
Voelt als: 5.7°
1013.8 hPa 0.6 mm 4.3°
6
52%
20:00
Voelt als: 4.8°
1014.0 hPa 0.5 mm 4.5°
5
68%
23:00
Voelt als: 4.5°
1013.9 hPa 0.5 mm 4.1°
4
68%
Midzomernacht Morgen
02:00
Voelt als: 3.6°
1013.0 hPa   4.2°
4
46%
05:00
Voelt als: 3.7°
1012.0 hPa   3.7°
5
64%
08:00
Voelt als: 4.6°
1011.0 hPa   3.1°
6
75%
11:00
Voelt als: 6.1°
1010.2 hPa   2.6°
6
59%
14:00
10°
1009.2 hPa   2.3°
6
49%
17:00
Voelt als: 6.5°
1007.9 hPa   3.3°
6
57%
20:00
Voelt als: 6.0°
1006.2 hPa   4.3°
5
65%
23:00
Voelt als: 5.8°
1003.8 hPa   4.8°
3
77%
Midzomernacht Zaterdag 29 Jun
02:00
Voelt als: 4.9°
1001.6 hPa   5.6°
4
74%
05:00
Voelt als: 3.5°
1000.9 hPa   3.1°
4
65%
08:00
Voelt als: 3.9°
1001.3 hPa 1.6 mm 1.0°
6
57%
11:00
Voelt als: 4.6°
1002.6 hPa 4.3 mm 0.1°
6
61%
14:00
Voelt als: 5.3°
1003.9 hPa 4.0 mm 1.1°
6
75%
17:00
Voelt als: 4.9°
1005.0 hPa 2.1 mm 1.2°
7
70%
20:00
Voelt als: 3.6°
1005.6 hPa   3.3°
7
69%
23:00
Voelt als: 3.1°
1006.0 hPa 9.5 mm 3.2°
5
73%
Midzomernacht Zondag 30 Jun
02:00
Voelt als: 3.1°
1006.2 hPa 6.1 mm 3.1°
3
80%
05:00
Voelt als: 4.1°
1006.0 hPa   2.9°
3
45%
08:00
Voelt als: 4.8°
1005.2 hPa   2.7°
4
81%
11:00
Voelt als: 6.0°
1004.7 hPa 15.3 mm 2.7°
4
89%
14:00
Voelt als: 6.9°
1003.8 hPa 15.4 mm 2.8°
4
91%
17:00
Voelt als: 7.3°
1001.9 hPa 15.4 mm 3.2°
3
86%
20:00
Voelt als: 7.6°
999.9 hPa 15.4 mm 3.8°
3
82%
23:00
Voelt als: 7.2°
996.1 hPa 15.4 mm 4.8°
3
87%
Midzomernacht Maandag 01 Jul
02:00
Voelt als: 6.9°
992.3 hPa 15.8 mm 5.6°
2
92%
05:00
Voelt als: 6.9°
991.6 hPa 16.1 mm 6.4°
2
92%
08:00
Voelt als: 7.0°
991.0 hPa 16.5 mm 7.1°
3
92%
11:00
Voelt als: 7.4°
992.8 hPa 16.6 mm 6.3°
3
92%
14:00
10°
Voelt als: 7.7°
994.7 hPa 16.7 mm 5.2°
4
92%
17:00
Voelt als: 7.3°
995.9 hPa 16.9 mm 5.2°
4
87%
20:00
Voelt als: 6.9°
997.2 hPa 17.0 mm 5.2°
4
82%
23:00
Voelt als: 5.8°
999.0 hPa 18.8 mm 5.0°
3
67%
Midzomernacht Dinsdag 02 Jul
02:00
Voelt als: 4.8°
1000.7 hPa 22.2 mm 4.7°
3
52%
05:00
Voelt als: 4.9°
1000.7 hPa 25.9 mm 5.1°
4
70%
08:00
Voelt als: 5.4°
1000.7 hPa 29.7 mm 5.5°
4
88%
11:00
Voelt als: 7.2°
1002.1 hPa 31.9 mm 5.7°
3
84%
14:00
10°
Voelt als: 8.7°
1003.5 hPa 33.3 mm 6.0°
3
80%
17:00
10°
Voelt als: 8.0°
1004.1 hPa 34.0 mm 5.5°
3
79%
20:00
Voelt als: 7.1°
1004.6 hPa 34.5 mm 5.1°
4
78%
23:00
Voelt als: 6.0°
1005.2 hPa 35.1 mm 5.0°
3
65%
Midzomernacht Woensdag 03 Jul
02:00
Voelt als: 5.0°
1005.7 hPa 36.1 mm 4.8°
2
52%
05:00
Voelt als: 5.9°
1005.9 hPa 36.8 mm 4.5°
3
60%
08:00
Voelt als: 6.9°
1006.1 hPa 36.9 mm 4.0°
3
67%
11:00
Voelt als: 7.3°
1006.5 hPa 37.1 mm 5.4°
4
79%
14:00
10°
Voelt als: 7.7°
1006.9 hPa 37.1 mm 6.8°
4
91%
17:00
10°
Voelt als: 8.0°
1008.6 hPa 37.2 mm 6.4°
4
88%
20:00
10°
Voelt als: 8.2°
1010.2 hPa 37.2 mm 5.9°
4
85%
23:00
Voelt als: 6.9°
1010.8 hPa 37.3 mm 5.7°
3
82%
Midzomernacht Donderdag 04 Jul
02:00
Voelt als: 5.7°
1011.4 hPa 37.4 mm 5.5°
3
80%
05:00
Voelt als: 6.5°
1011.2 hPa 37.4 mm 5.3°
3
83%
08:00
Voelt als: 7.3°
1011.0 hPa 74.9 mm 5.3°
3
87%
14:00
11°
1011.7 hPa 77.2 mm 6.6°
4
92%
20:00
10°
1010.7 hPa 81.0 mm 6.9°
4
92%
Midzomernacht Vrijdag 05 Jul
02:00
Voelt als: 6.7°
1010.6 hPa 83.0 mm 6.1°
2
90%
08:00
Voelt als: 7.2°
1008.7 hPa 88.9 mm 5.8°
3
91%
14:00
11°
1009.0 hPa 95.4 mm 6.4°
3
92%
20:00
10°
Voelt als: 7.7°
1008.7 hPa 99.4 mm 6.4°
3
91%
Midzomernacht Zaterdag 06 Jul
02:00
Voelt als: 6.1°
1010.7 hPa 104.6 mm 5.9°
2
91%
08:00
Voelt als: 7.3°
1010.0 hPa 110.4 mm 6.2°
3
91%
14:00
Voelt als: 6.0°
1001.3 hPa 118.5 mm 7.1°
3
1%
20:00
Voelt als: 6.2°
1000.1 hPa 126.5 mm 7.3°
3
1%
Midzomernacht Zondag 07 Jul
02:00
Voelt als: 6.4°
997.8 hPa 134.3 mm 7.4°
3
1%
08:00
11°
1004.6 hPa 1.0 mm 7.1°
1
59%
14:00
13°
1005.6 hPa 0.6 mm 7.1°
1
52%
20:00
12°
1006.7 hPa 0.2 mm 7.1°
2
45%
Midzomernacht Maandag 08 Jul
02:00
10°
1008.1 hPa 0.1 mm 7.4°
0
37%
08:00
12°
1008.9 hPa 0.3 mm 7.6°
1
45%
14:00
14°
1009.9 hPa 0.6 mm 7.6°
2
47%
20:00
13°
1010.7 hPa 0.6 mm 8.0°
1
45%
Midzomernacht Dinsdag 09 Jul
02:00
11°
1011.4 hPa 0.3 mm 7.8°
1
37%
08:00
13°
1011.1 hPa 0.5 mm 8.0°
1
39%
14:00
15°
1011.1 hPa 1.0 mm 8.2°
1
38%
20:00
14°
1010.9 hPa 0.7 mm 8.7°
1
39%
Midzomernacht Woensdag 10 Jul
02:00
12°
1011.6 hPa 0.4 mm 8.4°
1
36%
08:00
13°
1011.4 hPa 0.4 mm 8.6°
1
39%
14:00
15°
1011.7 hPa 0.3 mm 8.9°
2
40%
20:00
14°
1011.8 hPa 0.3 mm 8.9°
2
39%
Midzomernacht Donderdag 11 Jul
02:00
12°
1012.5 hPa 0.4 mm 8.6°
1
34%
08:00
13°
1012.0 hPa 0.4 mm 8.7°
1
30%
14:00
16°
1012.0 hPa 0.5 mm 9.0°
3
31%
20:00
15°
1011.9 hPa 0.5 mm 8.9°
3
32%
Midzomernacht Vrijdag 12 Jul
02:00
12°
1012.5 hPa 0.4 mm 8.5°
1
33%
08:00
14°
1012.2 hPa 0.6 mm 8.7°
1
37%
  CAPE Lifted Index Hail Supercell Tornado SRH 3km CL BTM PRES CL TOP PRES Swiss DWD icon SMHI TS
Midzomernacht Vandaag
10:00 9 J/kg 6.9 K 0 % 0 % 0 % 0 m²/s² 0 0 9.57 2
11:00 11 J/kg 6.3 K 0 % 0 % 0 % 0 m²/s² 0 0 8.61 2
12:00 23 J/kg 5.3 K 0 % 0 % 0 % 0 m²/s² 0 0 7.22 3
13:00 42 J/kg 4.1 K 0 % 0 % 0 % 0 m²/s² 0 0 5.57 3
14:00 59 J/kg 3.1 K 0 % 0 % 0 % 0 m²/s² 0 0 4.21 3
15:00 79 J/kg 2.4 K 0 % 0 % 0 % 0 m²/s² 0 0 3.3 3
16:00 82 J/kg 2.3 K 0 % 0 % 0 % 0 m²/s² 0 0 3.11 2
17:00 59 J/kg 3.0 K 0 % 0 % 0 % 0 m²/s² 0 0 3.93 2
18:00 46 J/kg 3.5 K 0 % 0 % 0 % 0 m²/s² 0 0 4.52 1
19:00 43 J/kg 4.3 K 0 % 0 % 0 % 0 m²/s² 0 0 5.56 2
20:00 39 J/kg 5.1 K 0 % 0 % 0 % 0 m²/s² 0 0 6.51 3
21:00 62 J/kg 5.5 K 0 % 0 % 0 % 0 m²/s² 0 0 7.3 3
22:00 77 J/kg 5.9 K 0 % 0 % 0 % 0 m²/s² 0 0 8.36 3
23:00 63 J/kg 6.6 K 0 % 0 % 0 % 0 m²/s² 0 0 9.66 80
Midzomernacht Morgen
00:00 65 J/kg 7.2 K 0 % 0 % 0 % 0 m²/s² 0 0 10.35 3
01:00 45 J/kg 7.7 K 0 % 0 % 0 % 0 m²/s² 0 0 10.79 3
02:00 45 J/kg 7.9 K 0 % 0 % 0 % 0 m²/s² 0 0 10.66 3
03:00 44 J/kg 7.9 K 0 % 0 % 0 % 0 m²/s² 0 0 10.51 3
04:00 41 J/kg 8.0 K 0 % 0 % 0 % 0 m²/s² 0 0 10.7 3
05:00 43 J/kg 8.3 K 0 % 0 % 0 % 0 m²/s² 0 0 10.91 2
06:00 38 J/kg 9.1 K 0 % 0 % 0 % 0 m²/s² 0 0 11.86 3
07:00 30 J/kg 9.8 K 0 % 0 % 0 % 0 m²/s² 0 0 12.41 3
08:00 43 J/kg 9.6 K 0 % 0 % 0 % 0 m²/s² 0 0 12.3 61
09:00 32 J/kg 10.1 K 0 % 0 % 0 % 0 m²/s² 0 0 12.59 61
10:00 33 J/kg 9.8 K 0 % 0 % 0 % 0 m²/s² 0 0 11.63 61
11:00 45 J/kg 9.0 K 0 % 0 % 0 % 0 m²/s² 0 0 10.05 61
12:00 56 J/kg 8.6 K 0 % 0 % 0 % 0 m²/s² 0 0 9.11 61
13:00 58 J/kg 8.1 K 0 % 0 % 0 % 0 m²/s² 0 0 8.52 61
14:00 61 J/kg 7.8 K 0 % 0 % 0 % 0 m²/s² 0 0 8.37 61
15:00 72 J/kg 7.5 K 0 % 0 % 0 % 0 m²/s² 0 0 9.15 61
16:00 48 J/kg 7.8 K 0 % 0 % 0 % 0 m²/s² 0 0 10.2 61
17:00 36 J/kg 8.6 K 0 % 0 % 0 % 0 m²/s² 0 0 11.21 61
18:00 23 J/kg 9.7 K 0 % 0 % 0 % 0 m²/s² 0 0 12.25 61
19:00 28 J/kg 10.6 K 0 % 0 % 0 % 0 m²/s² 0 0 12.94 3
20:00 30 J/kg 11.0 K 0 % 0 % 0 % 0 m²/s² 0 0 13.16 3
21:00 42 J/kg 10.7 K 0 % 0 % 0 % 0 m²/s² 0 0 11.78 3
22:00 21 J/kg 11.2 K 0 % 0 % 0 % 0 m²/s² 0 0 11.71 3
23:00 37 J/kg 10.9 K 0 % 0 % 0 % 0 m²/s² 0 0 11.35 3
Midzomernacht Zaterdag 29 Jun
00:00 31 J/kg 11.2 K 0 % 0 % 0 % 0 m²/s² 0 0 11.59 3
01:00 36 J/kg 10.8 K 0 % 0 % 0 % 0 m²/s² 0 0 11.25 2
02:00 40 J/kg 10.6 K 0 % 0 % 0 % 0 m²/s² 0 0 11.05 2
03:00 39 J/kg 10.3 K 0 % 0 % 0 % 0 m²/s² 0 0 10.66 2
04:00 21 J/kg 9.3 K 0 % 0 % 0 % 0 m²/s² 0 0 10.05 3
05:00 81 J/kg 7.7 K 0 % 0 % 0 % 0 m²/s² 0 0 10.52 3
06:00 70 J/kg 6.6 K 0 % 0 % 0 % 0 m²/s² 0 0 7.95 61
07:00 67 J/kg 6.1 K 0 % 0 % 0 % 0 m²/s² 0 0 8.77 61
08:00 117 J/kg 4.7 K 0 % 0 % 0 % 0 m²/s² 0 0 6.95 61
09:00 98 J/kg 5.0 K 0 % 0 % 0 % 0 m²/s² 0 0 7.58 61
10:00 53 J/kg 5.8 K 0 % 0 % 0 % 0 m²/s² 0 0 9.46 61
11:00 43 J/kg 6.6 K 0 % 0 % 0 % 0 m²/s² 0 0 10.59 2
12:00 47 J/kg 7.6 K 0 % 0 % 0 % 0 m²/s² 0 0 11.02 1
13:00 52 J/kg 7.8 K 0 % 0 % 0 % 0 m²/s² 0 0 10.14 0
14:00 59 J/kg 7.6 K 0 % 0 % 0 % 0 m²/s² 0 0 9.4 3
15:00 38 J/kg 8.5 K 0 % 0 % 0 % 0 m²/s² 0 0 10.6 1
16:00 67 J/kg 8.1 K 0 % 0 % 0 % 0 m²/s² 0 0 10.92 2
17:00 80 J/kg 7.9 K 0 % 0 % 0 % 0 m²/s² 0 0 10.27 2
18:00 66 J/kg 8.4 K 0 % 0 % 0 % 0 m²/s² 0 0 10.47 1
19:00 67 J/kg 8.6 K 0 % 0 % 0 % 0 m²/s² 0 0 11 0
20:00 69 J/kg 8.9 K 0 % 0 % 0 % 0 m²/s² 0 0 11.66 1
21:00 57 J/kg 9.2 K 0 % 0 % 0 % 0 m²/s² 0 0 12.02 1
22:00 58 J/kg 9.2 K 0 % 0 % 0 % 0 m²/s² 0 0 12.11 0
23:00 55 J/kg 9.1 K 0 % 0 % 0 % 0 m²/s² 0 0 12.19 2
Midzomernacht Zondag 30 Jun
00:00 47 J/kg 9.4 K 0 % 0 % 0 % 0 m²/s² 0 0 12.49 3
01:00 57 J/kg 9.4 K 0 % 0 % 0 % 0 m²/s² 0 0 12.25 3
02:00 39 J/kg 10.0 K 0 % 0 % 0 % 0 m²/s² 0 0 13 3
03:00 35 J/kg 10.1 K 0 % 0 % 0 % 0 m²/s² 0 0 12.95 3
04:00 23 J/kg 11.0 K 0 % 0 % 0 % 0 m²/s² 0 0 14.03 2
05:00 12 J/kg 11.9 K 0 % 0 % 0 % 0 m²/s² 0 0 15.2 2
06:00 13 J/kg 12.2 K 0 % 0 % 0 % 0 m²/s² 0 0 15.41 1
07:00 10 J/kg 12.5 K 0 % 0 % 0 % 0 m²/s² 0 0 15.8 3
08:00 8 J/kg 12.2 K 0 % 0 % 0 % 0 m²/s² 0 0 15.77 3
09:00 0 J/kg 0.0 K 0 % 0 % 0 % 0 m²/s² 0 0 13.83
Temp Baro Wind Neerslag
  EWN Forecast EWN WRFDA DWD ICON FMI HIRLAM MET Norway GFS
Midzomernacht Vandaag
11:00 10.5° 1014.6 hPa 6.2 m/s 0.0 mm 10.3° 1013.2 hPa 7.2 m/s 3.3 mm 9.8° 1015.1 hPa 6.6 m/s -0.5 mm 11.0° 1014.0 hPa 6.7 m/s 0.0 mm 11.2° 1014.6 hPa 5.9 m/s 0.0 mm 9.3° 1015.2 hPa 5.5 m/s
14:00 9.9° 1013.7 hPa 8.3 m/s 0.0 mm 11.2° 1012.7 hPa 9.3 m/s 5.0 mm 9.7° 1014.5 hPa 10.0 m/s 0.2 mm 9.4° 1013.6 hPa 7.6 m/s 0.0 mm 11.1° 1013.6 hPa 8.3 m/s 0.0 mm 10.0° 1015.0 hPa 10.8 m/s
17:00 8.9° 1013.8 hPa 6.4 m/s 0.6 mm 10.4° 1012.6 hPa 8.8 m/s 5.1 mm 8.7° 1014.8 hPa 7.7 m/s 0.4 mm 9.0° 1013.3 hPa 6.7 m/s 0.0 mm 8.9° 1013.8 hPa 5.4 m/s 0.3 mm 8.6° 1014.9 hPa 9.6 m/s
20:00 7.8° 1014.0 hPa 5.0 m/s 0.5 mm 9.4° 1012.5 hPa 7.4 m/s 5.2 mm 7.5° 1014.5 hPa 6.4 m/s 0.3 mm 7.9° 1013.1 hPa 5.4 m/s 0.0 mm 7.8° 1014.1 hPa 4.2 m/s 0.0 mm 7.9° 1014.8 hPa 7.6 m/s
23:00 7.1° 1013.9 hPa 3.8 m/s 0.5 mm 8.3° 1011.6 hPa 5.5 m/s 5.8 mm 7.2° 1014.0 hPa 3.8 m/s 0.5 mm 7.5° 1012.8 hPa 5.0 m/s 0.0 mm 6.8° 1014.2 hPa 2.8 m/s 0.0 mm 7.6° 1014.1 hPa 5.9 m/s
Midzomernacht Morgen
02:00 6.4° 1013.0 hPa 4.0 m/s 0.0 mm 7.6° 1010.8 hPa 5.2 m/s 8.7 mm 7.1° 1013.1 hPa 4.0 m/s 0.2 mm 7.2° 1012.1 hPa 4.7 m/s 0.0 mm 5.4° 1013.8 hPa 1.7 m/s 0.0 mm 7.4° 1013.5 hPa 5.4 m/s
05:00 6.7° 1012.0 hPa 4.6 m/s 0.0 mm 7.5° 1009.9 hPa 5.3 m/s 10.1 mm 7.2° 1012.2 hPa 5.9 m/s 0.0 mm 7.6° 1010.7 hPa 5.3 m/s 0.0 mm 6.2° 1012.7 hPa 2.1 m/s 0.0 mm 7.1° 1011.8 hPa 6.3 m/s
08:00 7.7° 1011.0 hPa 5.5 m/s 0.0 mm 7.6° 1009.2 hPa 5.8 m/s 10.4 mm 7.1° 1011.4 hPa 7.2 m/s 0.4 mm 8.1° 1009.3 hPa 5.5 m/s 0.0 mm 8.1° 1011.8 hPa 5.3 m/s 0.0 mm 7.1° 1011.4 hPa 6.3 m/s
11:00 9.1° 1010.2 hPa 6.1 m/s 0.0 mm 9.6° 1008.8 hPa 7.8 m/s 10.5 mm 7.9° 1010.9 hPa 7.6 m/s 0.9 mm 9.0° 1007.9 hPa 5.8 m/s 0.0 mm 10.2° 1011.0 hPa 5.9 m/s 0.0 mm 8.0° 1011.0 hPa 6.8 m/s
14:00 10.2° 1009.2 hPa 6.3 m/s 0.0 mm 9.8° 1008.0 hPa 9.4 m/s 10.6 mm 8.0° 1010.3 hPa 8.0 m/s 2.7 mm 10.6° 1006.9 hPa 6.5 m/s 0.0 mm 11.9° 1009.7 hPa 5.6 m/s 0.0 mm 9.0° 1010.4 hPa 6.3 m/s
17:00 9.4° 1007.9 hPa 5.8 m/s 0.0 mm 9.3° 1008.0 hPa 8.8 m/s 10.9 mm 8.3° 1009.5 hPa 7.2 m/s 1.9 mm 7.9° 1007.0 hPa 5.4 m/s 0.0 mm 12.0° 1007.8 hPa 5.6 m/s 0.0 mm 10.0° 1009.7 hPa 6.6 m/s
20:00 8.7° 1006.2 hPa 4.9 m/s 0.0 mm 7.3° 1006.8 hPa 5.8 m/s 11.4 mm 8.4° 1007.6 hPa 6.1 m/s 0.3 mm 7.4° 1006.6 hPa 5.1 m/s 0.0 mm 10.7° 1005.6 hPa 4.6 m/s 0.0 mm 9.3° 1007.4 hPa 4.7 m/s
23:00 8.0° 1003.8 hPa 3.4 m/s 0.0 mm 7.4° 1005.8 hPa 6.4 m/s 12.7 mm 8.2° 1005.6 hPa 3.0 m/s 0.0 mm 7.2° 1005.0 hPa 4.9 m/s 0.0 mm 9.5° 1002.5 hPa 1.7 m/s 0.0 mm 8.0° 1006.3 hPa 4.1 m/s
Midzomernacht Zaterdag 29 Jun
02:00 7.4° 1001.6 hPa 3.9 m/s 0.0 mm 6.7° 1003.8 hPa 5.1 m/s 14.1 mm 7.3° 1003.3 hPa 1.8 m/s 0.0 mm 7.1° 1002.4 hPa 6.1 m/s 0.0 mm 7.7° 1000.9 hPa 3.9 m/s 0.7 mm 7.5° 1003.3 hPa 3.8 m/s
05:00 6.5° 1000.9 hPa 4.2 m/s 0.0 mm 7.2° 1002.7 hPa 7.0 m/s 18.5 mm 7.5° 1001.3 hPa 3.8 m/s 0.0 mm 6.3° 1001.1 hPa 3.9 m/s 0.0 mm 6.3° 1002.5 hPa 3.9 m/s
08:00 7.3° 1001.3 hPa 5.7 m/s 1.6 mm 7.8° 1002.5 hPa 7.7 m/s 24.2 mm 6.3° 1001.2 hPa 5.1 m/s 1.0 mm 7.6° 1001.7 hPa 5.6 m/s 0.0 mm 5.6° 1003.0 hPa 5.4 m/s
11:00 7.9° 1002.6 hPa 5.9 m/s 4.3 mm 8.0° 1004.3 hPa 8.0 m/s 26.4 mm 7.1° 1002.8 hPa 7.1 m/s 0.8 mm 9.2° 1002.9 hPa 5.6 m/s 0.0 mm 6.9° 1005.2 hPa 7.2 m/s
14:00 8.6° 1003.9 hPa 6.3 m/s 4.0 mm 8.6° 1005.7 hPa 5.8 m/s 26.5 mm 8.3° 1003.7 hPa 8.6 m/s 0.2 mm 9.6° 1004.1 hPa 6.0 m/s 0.4 mm 7.6° 1007.2 hPa 7.3 m/s
17:00 8.3° 1005.0 hPa 6.5 m/s 2.1 mm 8.5° 1006.7 hPa 6.6 m/s 26.6 mm 7.9° 1004.8 hPa 8.3 m/s 0.2 mm 8.7° 1005.1 hPa 6.4 m/s 0.0 mm 7.5° 1007.9 hPa 4.9 m/s
20:00 7.3° 1005.6 hPa 6.8 m/s 0.0 mm 8.0° 1007.3 hPa 5.6 m/s 26.6 mm 7.9° 1005.3 hPa 7.1 m/s 0.0 mm 7.3° 1005.7 hPa 7.2 m/s 0.0 mm 7.4° 1008.3 hPa 4.3 m/s
23:00 6.4° 1006.0 hPa 5.1 m/s 9.5 mm 7.2° 1007.2 hPa 4.4 m/s 26.7 mm 7.0° 1005.6 hPa 5.7 m/s 0.0 mm 6.4° 1006.2 hPa 5.3 m/s 6.7° 1008.3 hPa 3.1 m/s
Midzomernacht Zondag 30 Jun
02:00 5.6° 1006.2 hPa 3.1 m/s 6.1 mm 5.7° 1006.7 hPa 2.8 m/s 26.7 mm 6.5° 1005.6 hPa 2.9 m/s 0.1 mm 5.5° 1006.8 hPa 3.5 m/s 5.9° 1008.2 hPa 2.1 m/s
05:00 6.3° 1006.0 hPa 3.0 m/s 0.0 mm 6.5° 1005.6 hPa 1.8 m/s 26.7 mm 6.6° 1005.5 hPa 2.3 m/s 0.0 mm 6.2° 1006.4 hPa 3.8 m/s 6.2° 1007.8 hPa 1.4 m/s
08:00 7.3° 1005.2 hPa 3.7 m/s 0.0 mm 8.3° 1004.6 hPa 3.7 m/s 26.7 mm 7.6° 1004.1 hPa 2.6 m/s 0.0 mm 6.8° 1006.0 hPa 4.0 m/s 7.2° 1006.5 hPa 1.6 m/s
11:00 8.3° 1004.7 hPa 3.7 m/s 15.3 mm 8.3° 1004.7 hPa 3.9 m/s 7.7° 1005.0 hPa 2.1 m/s 15.3 mm
14:00 9.1° 1003.8 hPa 3.9 m/s 15.4 mm 9.1° 1004.0 hPa 3.8 m/s 8.7° 1002.0 hPa 4.7 m/s 15.4 mm
17:00 9.2° 1001.9 hPa 3.5 m/s 15.4 mm 9.1° 1002.1 hPa 3.4 m/s 9.9° 998.6 hPa 4.1 m/s 15.4 mm
20:00 9.3° 999.9 hPa 3.1 m/s 15.4 mm 9.2° 1000.3 hPa 3.0 m/s 10.2° 995.7 hPa 3.8 m/s 15.4 mm
23:00 8.6° 996.1 hPa 2.5 m/s 15.4 mm 8.6° 996.3 hPa 2.5 m/s 9.4° 993.6 hPa 2.8 m/s 15.4 mm
Midzomernacht Maandag 01 Jul
02:00 8.0° 992.3 hPa 2.0 m/s 15.8 mm 7.9° 992.3 hPa 2.0 m/s 8.7° 991.7 hPa 1.4 m/s 15.8 mm
05:00 8.3° 991.6 hPa 2.3 m/s 16.1 mm 8.2° 991.7 hPa 2.3 m/s 8.9° 990.5 hPa 1.8 m/s 16.1 mm
08:00 8.5° 991.0 hPa 2.6 m/s 16.5 mm 8.5° 991.1 hPa 2.6 m/s 8.9° 989.6 hPa 2.8 m/s 16.5 mm
11:00 9.2° 992.8 hPa 3.2 m/s 16.6 mm 9.1° 993.2 hPa 3.3 m/s 9.9° 989.4 hPa 1.8 m/s 16.6 mm
14:00 9.7° 994.7 hPa 3.9 m/s 16.7 mm 9.7° 995.2 hPa 4.0 m/s 9.5° 989.2 hPa 3.0 m/s 16.7 mm
17:00 9.4° 995.9 hPa 3.8 m/s 16.9 mm 9.3° 996.5 hPa 4.0 m/s 9.9° 989.6 hPa 1.7 m/s 16.9 mm
20:00 9.0° 997.2 hPa 3.7 m/s 17.0 mm 8.9° 997.8 hPa 3.9 m/s 9.8° 991.0 hPa 1.7 m/s 17.0 mm
23:00 7.8° 999.0 hPa 3.2 m/s 18.8 mm 7.7° 999.5 hPa 3.3 m/s 9.1° 993.3 hPa 1.7 m/s 18.8 mm
Midzomernacht Dinsdag 02 Jul
02:00 6.7° 1000.7 hPa 2.6 m/s 22.2 mm 6.5° 1001.2 hPa 2.7 m/s 8.6° 995.2 hPa 1.6 m/s 22.2 mm
05:00 7.3° 1000.7 hPa 3.6 m/s 25.9 mm 7.2° 1001.0 hPa 3.6 m/s 8.0° 997.1 hPa 2.8 m/s 25.9 mm
08:00 8.0° 1000.7 hPa 4.4 m/s 29.7 mm 8.0° 1000.9 hPa 4.6 m/s 8.0° 999.0 hPa 1.7 m/s 29.7 mm
11:00 9.1° 1002.1 hPa 3.3 m/s 31.9 mm 9.1° 1002.2 hPa 3.6 m/s 9.3° 1000.8 hPa 0.4 m/s 31.9 mm
14:00 10.0° 1003.5 hPa 2.6 m/s 33.3 mm 10.1° 1003.6 hPa 2.6 m/s 8.6° 1002.3 hPa 2.4 m/s 33.3 mm
17:00 9.6° 1004.1 hPa 3.2 m/s 34.0 mm 9.7° 1004.1 hPa 3.4 m/s 9.1° 1003.7 hPa 1.1 m/s 34.0 mm
20:00 9.3° 1004.6 hPa 3.9 m/s 34.5 mm 9.3° 1004.6 hPa 4.2 m/s 8.8° 1005.0 hPa 1.0 m/s 34.5 mm
23:00 8.0° 1005.2 hPa 3.1 m/s 35.1 mm 8.0° 1005.0 hPa 3.3 m/s 8.3° 1006.5 hPa 1.0 m/s 35.1 mm
Midzomernacht Woensdag 03 Jul
02:00 6.7° 1005.7 hPa 2.4 m/s 36.1 mm 6.6° 1005.5 hPa 2.4 m/s 7.7° 1007.5 hPa 2.0 m/s 36.1 mm
05:00 7.7° 1005.9 hPa 2.8 m/s 36.8 mm 7.7° 1005.6 hPa 2.8 m/s 8.0° 1008.3 hPa 2.0 m/s 36.8 mm
08:00 8.8° 1006.1 hPa 3.2 m/s 36.9 mm 8.8° 1005.8 hPa 3.3 m/s 8.5° 1009.2 hPa 2.0 m/s 36.9 mm
11:00 9.3° 1006.5 hPa 3.6 m/s 37.1 mm 9.3° 1006.2 hPa 3.7 m/s 9.2° 1010.1 hPa 2.7 m/s 37.1 mm
14:00 9.7° 1006.9 hPa 4.0 m/s 37.1 mm 9.8° 1006.6 hPa 4.1 m/s 9.2° 1010.7 hPa 3.5 m/s 37.1 mm
17:00 9.9° 1008.6 hPa 3.8 m/s 37.2 mm 9.9° 1008.4 hPa 3.8 m/s 9.4° 1011.4 hPa 3.2 m/s 37.2 mm
20:00 10.0° 1010.2 hPa 3.6 m/s 37.2 mm 10.1° 1010.1 hPa 3.6 m/s 8.5° 1011.8 hPa 3.3 m/s 37.2 mm
23:00 8.7° 1010.8 hPa 3.1 m/s 37.3 mm 8.8° 1010.7 hPa 3.2 m/s 8.0° 1012.5 hPa 2.0 m/s 37.3 mm
Midzomernacht Donderdag 04 Jul
02:00 7.4° 1011.4 hPa 2.6 m/s 37.4 mm 7.4° 1011.3 hPa 2.7 m/s 7.6° 1012.5 hPa 2.0 m/s 37.4 mm
05:00 8.3° 1011.2 hPa 2.8 m/s 37.4 mm 8.3° 1011.1 hPa 3.0 m/s 7.8° 1012.2 hPa 1.6 m/s 37.4 mm
08:00 9.1° 1011.0 hPa 3.1 m/s 37.5 mm 9.2° 1010.9 hPa 3.2 m/s 7.5° 1012.1 hPa 2.1 m/s 37.5 mm
14:00 10.9° 1011.7 hPa 3.8 m/s 39.1 mm 11.2° 1011.7 hPa 3.8 m/s 7.7° 1011.6 hPa 3.3 m/s 39.1 mm
20:00 10.2° 1010.7 hPa 3.5 m/s 40.9 mm 10.4° 1010.7 hPa 3.6 m/s 7.8° 1010.4 hPa 2.4 m/s 40.9 mm
Midzomernacht Vrijdag 05 Jul
02:00 7.9° 1010.6 hPa 2.0 m/s 41.8 mm 7.9° 1010.8 hPa 2.0 m/s 7.7° 1008.7 hPa 2.3 m/s 41.8 mm
08:00 9.0° 1008.7 hPa 3.2 m/s 45.5 mm 9.1° 1008.9 hPa 3.2 m/s 7.6° 1006.3 hPa 3.0 m/s 45.5 mm
14:00 10.9° 1009.0 hPa 3.2 m/s 48.5 mm 11.1° 1009.4 hPa 3.3 m/s 8.2° 1004.9 hPa 2.4 m/s 48.5 mm
20:00 9.5° 1008.7 hPa 3.4 m/s 50.2 mm 9.7° 1009.2 hPa 3.3 m/s 7.7° 1003.3 hPa 4.1 m/s 50.2 mm
Midzomernacht Zaterdag 06 Jul
02:00 7.7° 1010.7 hPa 2.4 m/s 53.0 mm 7.7° 1011.4 hPa 2.2 m/s 7.1° 1002.9 hPa 4.8 m/s 53.0 mm
08:00 8.9° 1010.0 hPa 2.8 m/s 56.1 mm 9.0° 1010.7 hPa 2.8 m/s 7.5° 1001.9 hPa 3.2 m/s 56.1 mm
14:00 8.0° 1001.3 hPa 3.3 m/s 60.2 mm 8.0° 1001.3 hPa 3.3 m/s 60.2 mm
20:00 8.1° 1000.1 hPa 3.1 m/s 64.0 mm 8.1° 1000.1 hPa 3.1 m/s 64.0 mm
Midzomernacht Zondag 07 Jul
02:00 8.1° 997.8 hPa 2.8 m/s 68.1 mm 8.1° 997.8 hPa 2.8 m/s 68.1 mm
08:00 10.7° 1004.6 hPa 0.7 m/s 1.0 mm
14:00 12.8° 1005.6 hPa 1.3 m/s 0.6 mm
20:00 12.4° 1006.7 hPa 1.5 m/s 0.2 mm
Midzomernacht Maandag 08 Jul
02:00 10.0° 1008.1 hPa 0.3 m/s 0.1 mm
08:00 11.6° 1008.9 hPa 1.3 m/s 0.3 mm
14:00 13.6° 1009.9 hPa 1.6 m/s 0.6 mm
20:00 13.1° 1010.7 hPa 1.5 m/s 0.6 mm
Midzomernacht Dinsdag 09 Jul
02:00 10.9° 1011.4 hPa 0.7 m/s 0.3 mm
08:00 12.6° 1011.1 hPa 0.6 m/s 0.5 mm
14:00 14.7° 1011.1 hPa 1.1 m/s 1.0 mm
20:00 14.2° 1010.9 hPa 1.4 m/s 0.7 mm
Midzomernacht Woensdag 10 Jul
02:00 11.7° 1011.6 hPa 0.7 m/s 0.4 mm
08:00 13.5° 1011.4 hPa 0.7 m/s 0.4 mm
14:00 15.4° 1011.7 hPa 1.8 m/s 0.3 mm
20:00 14.3° 1011.8 hPa 2.2 m/s 0.3 mm